STARLINK-5649, 55354

Orbit data source: Space-Track

STARLINK-5649, 55354 is a payload satellite owned by SpaceX/Seattle (US) in LEO that was launched on Thu, 26 Jan 2023 UTC via an FALCON 9 launch vehicle from the Air Force Eastern Test Range (AFETR). Payload-class satellites include a variety of spacecraft equipped with specific instruments for various scientific and technological missions. These include communications satellites like Starlink; space stations such as the ISS; scientific satellites like the Hubble; Earth observation satellites from companies like Planet Labs, Umbra, and HawkEye 360; GPS; miniature CubeSats for education and research; and military/defense satellites.

Loading next visibility...
Identifier
55354, 2023-013Z
Orbit
LEO
Country
Flag of USUS
Related business
Manufacturer
SpaceX/Seattle
Mission
Operational Commercial Communications
Bus & Motor
STARLINK, Unknown motor
Mass
305 kg wet, ~290 kg dry
Launch date (UTC)
2023-01-26 (3 years ago)
Launch vehicle
FALCON 9
Launch site
Air Force Eastern Test Range (AFETR)
Object type
Payload
Rocket body
Debris
Shape & HBR
Box + 1 Pan, 10.1 m
Radar Cross Section
13.562 m², Large (>1 m²)

Expand to show TLE details & history
Last TLE update: 2 days ago

TLE from 2 days ago
0 STARLINK-5649
1 55354U 23013Z   26171.13227638 -.00002181  00000-0 -69795-4 0  9994
2 55354  43.0036  84.6118 0001203 263.8208  96.2506 15.27568846187346
Epoch: 2026-06-20T03:10Z
TLE epoch observation values (Epoch: 2026-06-20T03:10:28.679Z)
Latitude
-0.00005°
Longitude
128.64096°
Altitude
482.948 km
Speed
7.626 km/s
True Right ascension
05h 38m 26s
True Declination
0° 00' 00"
Sunlit
Object was in daylight at epoch
Visualization orbit readout
Latitude
Unknown
Longitude
Unknown
Altitude
Unknown
Speed
Unknown
Apparent Right ascension
Unknown
Apparent Declination
Unknown
Sunlit
N/A
Visualization observer readout
Local Sidereal Time
23:21:12
Azimuth
Unknown
Elevation
Unknown
Doppler factor
Unknown
Orbital elements
Apogee altitude
485.853 km
Perigee altitude
484.201 km
Semi-major axis
6,863.164 km
Eccentricity
0.00012
Inclination
43.0036°
RAAN
84.6118°
Arg. of periapsis
263.8208°
True anomaly
96.2643°
Mean anomaly
96.2506°
Eccentric anomaly
96.25745°
Mean motion
3.8173 °/min
Orbital period
94.31 mins
BSTAR
-0.000069795
Loading maneuver chart data...
Computing Atmospheric mass density...
Loading historical data...
Loading historical data...
Loading historical data...
Loading historical data...
Loading historical data...
Loading historical data...
Loading historical data...

Documentation

Showing up to 5 results
|